Regional Weather Roundup
Issued by NWS Northern Indiana

Home | Current Version | Previous Version | Graphics & Text | Print | Product List | Glossary On
Versions: 1 2 3 4 5 6 7 8 9 10 11 12 13 14 15 16 17 18 19 20 21 22 23 24 25 26 27 28 29 30 31 32 33 34 35 36 37 38 39 40 41 42 43 44 45 46 47 48 49 50
000
ASUS43 KIWX 300610
RWRIWX

KIWX WEATHER ROUNDUP
NATIONAL WEATHER SERVICE NORTHERN INDIANA
200 AM EDT SUN AUG 30 2015

NOTE: "FAIR" INDICATES FEW OR NO CLOUDS BELOW 12,000 FEET WITH NO
SIGNIFICANT WEATHER AND/OR OBSTRUCTIONS TO VISIBILITY.

* THESE STATIONS ARE NOT UNDER NWS QUALITY CONTROL. THEY ALSO MAY NOT
  REPORT WEATHER SUCH AS PRECIPITATION OR FOG.

INZ001>027-300700-
NORTHERN INDIANA

CITY           SKY/WX    TMP DP  RH WIND       PRES   REMARKS
GARY*          CLOUDY    68  65  89 NW6       30.04S FOG
VALPARAISO     CLOUDY    69  67  93 CALM      30.03F FOG
6HR MIN TEMP:  68; 6HR MAX TEMP:  71; 6HR PCP:  0.01;

MICHIGAN CITY* CLOUDY    68  68 100 CALM      30.03S FOG
LAPORTE*       CLOUDY   N/A N/A N/A SW3       30.04S HAZE
                                      6HR PCP:  0.01;

KNOX*          CLOUDY    68  68 100 S5        30.02S
SOUTH BEND     CLOUDY    68  66  93 SW5       30.03S
6HR MIN TEMP:  68; 6HR MAX TEMP:  70; 6HR PCP:  0.01;

GOSHEN         CLOUDY    68  64  87 S5        30.04S
6HR MIN TEMP:  68; 6HR MAX TEMP:  69; 6HR PCP: TRACE;

MONTICELLO*    CLOUDY    68  68 100 CALM      30.03S FOG
6HR MIN TEMP:  67; 6HR MAX TEMP:  73; 6HR PCP:  0.87;

LOGANSPORT*    CLOUDY    64  63  94 S3        30.04F
ROCHESTER*     MOCLDY    68  68 100 CALM      30.05S
WARSAW*        CLOUDY    64  63  94 CALM      30.05S
ANGOLA*        CLOUDY    66  57  72 CALM      30.05S
FORT WAYNE     LGT RAIN  70  68  93 CALM      30.06F
6HR MIN TEMP:  70; 6HR MAX TEMP:  74; 6HR PCP:  0.01;

HUNTINGTON*    LGT RAIN  66  62  88 CALM      30.04F
6HR MIN TEMP:  66; 6HR MAX TEMP:  73; 6HR PCP:  0.02;

PERU/GRISSOM   MOCLDY    67  65  92 CALM      30.03F
6HR MIN TEMP:  67; 6HR MAX TEMP:  75; 6HR PCP:  0.12;

MARION*        CLOUDY    68  61  78 S6        30.04F
6HR MIN TEMP:  49; 6HR MAX TEMP:  89; 6HR PCP:  0.09;


$$
INZ028>050-300700-
CENTRAL INDIANA

CITY           SKY/WX    TMP DP  RH WIND       PRES   REMARKS
LAFAYETTE      CLOUDY    69  67  93 CALM      30.02F
6HR MIN TEMP:  69; 6HR MAX TEMP:  74;

KOKOMO*        FAIR      66  52  59 S6        30.04F
6HR MIN TEMP:  66; 6HR MAX TEMP:  75; 6HR PCP:  0.02;

MUNCIE*        CLOUDY    69  68  96 S3        30.06F
6HR MIN TEMP:  69; 6HR MAX TEMP:  76; 6HR PCP: TRACE;

INDIANAPOLIS   MOCLDY    73  67  81 S6        30.04F
6HR MIN TEMP:  71; 6HR MAX TEMP:  77;


$$
MIZ043>046-050>051-056>058-064>065-071>073-077>080-300700-
SOUTHWEST LOWER MICHIGAN

CITY           SKY/WX    TMP DP  RH WIND       PRES   REMARKS
BATTLE CREEK   CLOUDY    68  65  90 S5        30.05S
6HR MIN TEMP:  68; 6HR MAX TEMP:  69; 6HR PCP:  0.01;

BENTON HARBOR  CLOUDY    68  67  96 S3        30.02S FOG
6HR MIN TEMP:  67; 6HR MAX TEMP:  69; 6HR PCP:  0.01;

COLDWATER*     CLOUDY    66  66  98 CALM      30.05S
6HR MIN TEMP:  66; 6HR MAX TEMP:  68;

HILLSDALE*     MOCLDY    66  66 100 S3        30.06F
HOLLAND        CLOUDY    68  65  90 E3        30.03S FOG
6HR MIN TEMP:  67; 6HR MAX TEMP:  68; 6HR PCP: TRACE;

GRAND RAPIDS   LGT RAIN  66  65  96 NE3       30.04F FOG
6HR MIN TEMP:  65; 6HR MAX TEMP:  66; 6HR PCP:  0.08;

KALAMAZOO      CLOUDY    67  64  90 S3        30.04S
6HR MIN TEMP:  67; 6HR MAX TEMP:  69; 6HR PCP:  0.03;

STURGIS*       CLOUDY    66  66 100 S6        30.04S
THREE RIVERS*  CLOUDY    67  66  98 S3        30.04F FOG
6HR MIN TEMP:  66; 6HR MAX TEMP:  69;


$$
OHZ001>008-015>018-024>025-300700-
NORTHWEST OHIO

CITY           SKY/WX    TMP DP  RH WIND       PRES   REMARKS
WAUSEON*       MOCLDY    66  66 100 S5        30.05F
DEFIANCE       CLOUDY    68  65  90 S3        30.05F
6HR MIN TEMP:  67; 6HR MAX TEMP:  73; 6HR PCP:  0.46;

FINDLAY        FAIR      71  68  90 CALM      30.06S FOG
6HR MIN TEMP:  70; 6HR MAX TEMP:  77; 6HR PCP:  0.07;

TOLEDO EXPRESS LGT RAIN  67  67 100 E5        30.05F FOG
6HR MIN TEMP:  67; 6HR MAX TEMP:  72; 6HR PCP:  0.13;

TOLEDO METCALF MOCLDY    70  67  90 NW3       30.07F FOG
6HR MIN TEMP:  69; 6HR MAX TEMP:  72; 6HR PCP:  0.02;

LIMA           FAIR      67  65  93 CALM      30.06F
6HR MIN TEMP:  67; 6HR MAX TEMP:  74; 6HR PCP:  0.20;


$$
AND FOR LAKE MICHIGAN COASTAL AND OPEN LAKE BUOY OBSERVATIONS

STATION/POSITION TEMP    WIND        PRES    VSBY  WAVE
                 AIR SEA DIR/SP/G                  HT/PER
                 (F)     (DEG/KT/KT) (MB)    (MI)  (FT/S)
MICHIGAN CITY     69     310/  5/  5   N/A
BURNS HARBOR      69     330/  6/  8 1017.3
SAINT JOSEPH      69     150/  3/  5 1016.9R
SOUTH LAKE BUOY   68 68   60/  2/  2 1016.0F
4 MI NW BRIDGMAN  69 70  300/  4/  4   N/A           0
MICHIGAN CITY     69 71  330/  6/  8   N/A           1

$$
&&



USA.gov is the U.S. government's official web portal to all federal, state and local government web resources and services.